Weather in Berezan

Ukraine / Kyiv Region     50˚18′26″N   31˚29′06″E
temp.,
°C
wind,
m/s
gust,
m/s
humid.,
%
clouds,
%
prec.,
mm/h
press.,
hPa
HPBL,
m
27 november, fri
fri2723:00+2˚ssw499250 0.0 1022217
02:00+1˚sw498525 0.0 1021268
05:00sw49820 0.0 1019251
08:00sw498014 0.0 1019290
11:00+3˚wsw477399 0.0 1018351
14:00+4˚wsw487198 0.0 1017424
17:00+4˚wsw3878100 0.0 1018453
20:00+3˚w3785100 0.0 1018339
28 november, sat
sat2823:00+3˚wsw4789100 0.3 1018368
02:00+3˚wsw3691100 0.4 1019342
05:00+2˚wsw239681 0.0 101871
08:00+3˚ssw229290 0.0 101975
11:00+4˚ssw3488100 0.1 1019348
14:00+4˚s1183100 0.1 1019335
17:00+3˚se1191100 0.0 101965
20:00+3˚e1193100 0.0 101932
29 november, sun
sun2923:00+3˚e2292100 0.0 101964
02:00+2˚ene1297100 0.9 1019129
05:00+2˚n2397100 1.1 1017229
08:00+2˚nnw3497100 2.5 1017205
11:00+2˚wnw2397100 1.0 1017164
14:00+2˚wnw2391100 1.1 1018219
17:00+2˚s0189100 0.0 101936
20:00+2˚s139595 0.0 1020162
30 november, mon
mon3023:00w249456 0.1 1021108
02:00wsw228829 0.1 102335
05:00−1˚wnw22850 0.0 102366
08:00−1˚nw127626 0.0 102583
11:00+1˚nnw1265100 0.0 1025306
14:00+2˚nnw2363100 0.0 1026406
17:00+1˚n2472100 0.0 1026183
20:00+1˚nne2479100 0.1 1028335
1 december, tue
tue123:00nnw4697100 1.1 1028267
02:00n4897100 2.0 1027375
05:00n5898100 1.8 1027372
08:00n5996100 2.8 1027377
11:00nne3598100 0.2 1027242
14:00+1˚nne23100100 0.3 1025126
17:00+1˚e3695100 0.0 1025188
20:00+1˚e2596100 0.4 1025227